{"data":{"norad_id":59958,"epoch":"2026-09-21T08:10:17.462496Z","epoch_age_seconds":105099,"freshness":"FRESH","line1":"1 59958U 24107P   26264.34047989  .00002882  00000+0  96412-4 0  9999","line2":"2 59958  53.1566 233.7667 0001561  86.4696 273.6485 15.34397422128590","mean_motion":15.34397422,"eccentricity":0.0001561,"inclination_deg":53.1566,"raan_deg":233.7667,"arg_perigee_deg":86.4696,"mean_anomaly_deg":273.6485,"bstar":9.6412e-5,"rev_number":12859,"period_min":93.847915758555,"perigee_km":461.64304621953,"apogee_km":463.77875893472,"semimajor_km":6840.8479025771,"source":"CELESTRAK","updated_at":"2026-09-22T09:00:49.117931Z"}}